CCM1UK EGSS-LFKJ

Flight info

Callsign CCM1UK
Flight time 1h 22m
Altitude 33000
Route NUGBO M183 SILVA Q41 COWLY UL612 VEULE DCT KOTAP UM728 KETEX DCT KOTIS DCT KUKOR DCT UTUVA DCT TITVA DCT NOQAS DCT OTROT DCT RETNO DCT KOLON DCT OMARD M623 VAREK
Aircraft A320/M-SDE3FGHIRWY/LB1

Departure

Time 2026-05-06 13:34
Airport London Stansted Airport (EGSS)

Arrival

Time 2026-05-06 14:57
Airport Ajaccio Napoléon Bonaparte airport (LFKJ)
Time Latitude Longitude Altitude Speed Heading
2026-05-06 13:10 51.88874 0.25389 340 ft 0 kts 42°
2026-05-06 13:11 51.88824 0.25465 340 ft 0 kts 42°
2026-05-06 13:22 51.88824 0.25464 340 ft 0 kts 42°
2026-05-06 13:23 51.88822 0.25461 340 ft 1 kts 42°
2026-05-06 13:24 51.88811 0.25445 339 ft 2 kts 42°
2026-05-06 13:24 51.88800 0.25429 339 ft 2 kts 42°
2026-05-06 13:24 51.88789 0.25412 339 ft 2 kts 42°
2026-05-06 13:24 51.88778 0.25398 339 ft 2 kts 19°
2026-05-06 13:25 51.88763 0.25395 338 ft 2 kts 350°
2026-05-06 13:25 51.88749 0.25404 338 ft 2 kts 320°
2026-05-06 13:25 51.88744 0.25412 338 ft 0 kts 307°
2026-05-06 13:27 51.88750 0.25401 338 ft 3 kts 313°
2026-05-06 13:27 51.88779 0.25353 339 ft 7 kts 313°
2026-05-06 13:27 51.88821 0.25284 339 ft 9 kts 314°
2026-05-06 13:27 51.88873 0.25194 340 ft 11 kts 306°
2026-05-06 13:28 51.88930 0.25093 340 ft 12 kts 313°
2026-05-06 13:28 51.88967 0.24975 341 ft 12 kts 248°
2026-05-06 13:28 51.88904 0.24868 340 ft 13 kts 224°
2026-05-06 13:28 51.88831 0.24756 339 ft 15 kts 223°
2026-05-06 13:29 51.88748 0.24633 338 ft 16 kts 222°
2026-05-06 13:29 51.88659 0.24501 338 ft 17 kts 223°
2026-05-06 13:29 51.88569 0.24363 338 ft 18 kts 223°
2026-05-06 13:29 51.88472 0.24219 338 ft 19 kts 222°
2026-05-06 13:30 51.88372 0.24070 339 ft 19 kts 223°
2026-05-06 13:30 51.88274 0.23919 341 ft 19 kts 224°
2026-05-06 13:30 51.88178 0.23777 342 ft 18 kts 222°
2026-05-06 13:30 51.88084 0.23637 343 ft 18 kts 223°
2026-05-06 13:31 51.87992 0.23497 343 ft 18 kts 221°
2026-05-06 13:31 51.87899 0.23361 343 ft 18 kts 222°
2026-05-06 13:31 51.87805 0.23220 343 ft 18 kts 222°
2026-05-06 13:31 51.87730 0.23062 343 ft 17 kts 275°
2026-05-06 13:32 51.87782 0.22893 342 ft 16 kts 240°
2026-05-06 13:32 51.87707 0.22767 341 ft 15 kts 217°
2026-05-06 13:32 51.87620 0.22645 340 ft 17 kts 222°
2026-05-06 13:32 51.87530 0.22508 338 ft 17 kts 230°
2026-05-06 13:33 51.87567 0.22343 337 ft 18 kts 314°
2026-05-06 13:33 51.87683 0.22266 337 ft 18 kts 18°
2026-05-06 13:33 51.87858 0.22511 339 ft 65 kts 44°
2026-05-06 13:33 51.88356 0.23263 343 ft 132 kts 42°
2026-05-06 13:34 51.89151 0.24466 570 ft 167 kts 39°
2026-05-06 13:34 51.89987 0.25696 1350 ft 165 kts 40°
2026-05-06 13:34 51.90803 0.26938 2209 ft 161 kts 40°
2026-05-06 13:34 51.91636 0.28203 2741 ft 173 kts 41°
2026-05-06 13:35 51.92644 0.29387 3081 ft 187 kts 19°
2026-05-06 13:35 51.93980 0.29439 3410 ft 206 kts 343°
2026-05-06 13:35 51.95272 0.28187 3763 ft 229 kts 325°
2026-05-06 13:35 51.96555 0.26544 4175 ft 248 kts 316°
2026-05-06 13:36 51.97450 0.24013 4661 ft 268 kts 286°
2026-05-06 13:36 51.97720 0.21012 5428 ft 273 kts 277°
2026-05-06 13:36 51.97889 0.17988 6191 ft 276 kts 277°
2026-05-06 13:36 51.98116 0.14907 6978 ft 278 kts 279°
2026-05-06 13:37 51.98403 0.11790 7785 ft 280 kts 281°
2026-05-06 13:37 51.98716 0.08719 8581 ft 281 kts 279°
2026-05-06 13:37 51.98812 0.05536 9371 ft 284 kts 268°
2026-05-06 13:37 51.98537 0.02400 10144 ft 287 kts 261°
2026-05-06 13:38 51.98118 -0.00847 10716 ft 298 kts 259°
2026-05-06 13:38 51.97668 -0.04201 11057 ft 315 kts 259°
2026-05-06 13:38 51.97199 -0.07734 11425 ft 330 kts 259°
2026-05-06 13:38 51.96718 -0.11415 12026 ft 336 kts 259°
2026-05-06 13:39 51.96236 -0.15121 12753 ft 338 kts 259°
2026-05-06 13:39 51.95750 -0.18842 13411 ft 340 kts 259°
2026-05-06 13:39 51.95260 -0.22585 14064 ft 343 kts 259°
2026-05-06 13:39 51.94767 -0.26350 14704 ft 346 kts 259°
2026-05-06 13:40 51.94268 -0.30145 15327 ft 348 kts 259°
2026-05-06 13:40 51.93760 -0.34005 15928 ft 351 kts 259°
2026-05-06 13:40 51.93253 -0.37842 16512 ft 354 kts 259°
2026-05-06 13:40 51.92733 -0.41764 17091 ft 356 kts 259°
2026-05-06 13:41 51.92217 -0.45647 17636 ft 359 kts 259°
2026-05-06 13:41 51.91690 -0.49600 18173 ft 362 kts 259°
2026-05-06 13:41 51.91157 -0.53592 18699 ft 364 kts 259°
2026-05-06 13:41 51.90614 -0.57639 19214 ft 367 kts 259°
2026-05-06 13:42 51.90071 -0.61673 19723 ft 369 kts 259°
2026-05-06 13:42 51.89525 -0.65718 20218 ft 372 kts 258°
2026-05-06 13:42 51.88970 -0.69823 20703 ft 374 kts 258°
2026-05-06 13:42 51.88413 -0.73932 21167 ft 377 kts 258°
2026-05-06 13:43 51.87851 -0.78067 21635 ft 379 kts 258°
2026-05-06 13:43 51.87283 -0.82230 22082 ft 382 kts 258°
2026-05-06 13:43 51.86707 -0.86435 22527 ft 384 kts 258°
2026-05-06 13:43 51.86133 -0.90619 22968 ft 386 kts 258°
2026-05-06 13:44 51.85341 -0.94780 23361 ft 390 kts 244°
2026-05-06 13:44 51.83770 -0.98303 23753 ft 395 kts 225°
2026-05-06 13:44 51.81508 -1.00877 24176 ft 400 kts 207°
2026-05-06 13:44 51.78807 -1.02170 24581 ft 406 kts 191°
2026-05-06 13:45 51.76018 -1.02859 24991 ft 408 kts 191°
2026-05-06 13:45 51.70396 -1.04251 25713 ft 414 kts 191°
2026-05-06 13:45 51.67529 -1.04983 26072 ft 416 kts 191°
2026-05-06 13:46 51.64665 -1.05647 26403 ft 419 kts 186°
2026-05-06 13:46 51.61755 -1.05297 26680 ft 426 kts 168°
2026-05-06 13:46 51.58993 -1.03579 27008 ft 431 kts 151°
2026-05-06 13:46 51.56517 -1.00886 27364 ft 433 kts 145°
2026-05-06 13:47 51.54105 -0.98057 27669 ft 435 kts 145°
2026-05-06 13:47 51.51629 -0.95167 27961 ft 438 kts 145°
2026-05-06 13:47 51.49159 -0.92326 28251 ft 440 kts 146°
2026-05-06 13:47 51.46596 -0.89651 28537 ft 441 kts 150°
2026-05-06 13:48 51.43930 -0.87297 28822 ft 442 kts 154°
2026-05-06 13:48 51.41150 -0.85252 29106 ft 443 kts 159°
2026-05-06 13:48 51.38267 -0.83397 29386 ft 445 kts 159°
2026-05-06 13:48 51.35405 -0.81575 29649 ft 446 kts 159°
2026-05-06 13:49 51.32525 -0.79743 29911 ft 448 kts 159°
2026-05-06 13:49 51.29618 -0.77892 30162 ft 449 kts 159°
2026-05-06 13:49 51.26733 -0.76055 30398 ft 451 kts 159°
2026-05-06 13:49 51.23835 -0.74211 30625 ft 453 kts 159°
2026-05-06 13:50 51.20893 -0.72339 30896 ft 453 kts 159°
2026-05-06 13:50 51.17997 -0.70497 31183 ft 452 kts 159°
2026-05-06 13:50 51.15067 -0.68637 31433 ft 453 kts 159°
2026-05-06 13:50 51.12136 -0.66781 31641 ft 454 kts 159°
2026-05-06 13:51 51.09223 -0.64891 31841 ft 455 kts 157°
2026-05-06 13:51 51.06367 -0.62774 32053 ft 456 kts 154°
2026-05-06 13:51 51.03575 -0.60389 32257 ft 457 kts 150°
2026-05-06 13:51 51.00839 -0.57711 32452 ft 458 kts 147°
2026-05-06 13:52 50.98199 -0.54890 32642 ft 459 kts 146°
2026-05-06 13:52 50.95564 -0.52068 32827 ft 459 kts 146°
2026-05-06 13:52 50.92928 -0.49253 32936 ft 460 kts 146°
2026-05-06 13:52 50.90274 -0.46425 32942 ft 461 kts 146°
2026-05-06 13:53 50.84945 -0.40765 32948 ft 464 kts 146°
2026-05-06 13:53 50.79533 -0.35033 32947 ft 472 kts 146°
2026-05-06 13:54 50.74079 -0.29273 32947 ft 473 kts 147°
2026-05-06 13:54 50.68619 -0.23528 32948 ft 473 kts 147°
2026-05-06 13:55 50.63135 -0.17784 32945 ft 473 kts 147°
2026-05-06 13:55 50.57656 -0.12054 32944 ft 472 kts 147°
2026-05-06 13:56 50.52204 -0.06362 32948 ft 472 kts 147°
2026-05-06 13:56 50.46771 -0.00709 32941 ft 471 kts 147°
2026-05-06 13:57 50.41283 0.04981 32942 ft 472 kts 147°
2026-05-06 13:57 50.35827 0.10621 32939 ft 471 kts 147°
2026-05-06 13:58 50.30381 0.16235 32947 ft 472 kts 147°
2026-05-06 13:58 50.24915 0.21859 32947 ft 472 kts 147°
2026-05-06 13:59 50.19424 0.27493 32946 ft 472 kts 147°
2026-05-06 13:59 50.13967 0.33095 32948 ft 472 kts 147°
2026-05-06 14:00 50.08508 0.38695 32946 ft 472 kts 146°
2026-05-06 14:00 50.03040 0.44290 32946 ft 472 kts 146°
2026-05-06 14:01 49.97561 0.49883 32947 ft 472 kts 146°
2026-05-06 14:01 49.92051 0.55495 32941 ft 472 kts 146°
2026-05-06 14:02 49.86556 0.61072 32932 ft 472 kts 146°
2026-05-06 14:02 49.81184 0.66941 32935 ft 472 kts 144°
2026-05-06 14:03 49.75862 0.72819 32932 ft 472 kts 144°
2026-05-06 14:03 49.70506 0.78724 32928 ft 473 kts 144°
2026-05-06 14:04 49.65175 0.84589 32927 ft 473 kts 144°
2026-05-06 14:04 49.59831 0.90453 32910 ft 473 kts 144°
2026-05-06 14:05 49.54469 0.96326 32909 ft 473 kts 144°
2026-05-06 14:05 49.49116 1.02169 32915 ft 473 kts 144°
2026-05-06 14:06 49.43767 1.07994 32914 ft 473 kts 144°
2026-05-06 14:06 49.38383 1.13839 32917 ft 472 kts 144°
2026-05-06 14:07 49.33061 1.19602 32911 ft 472 kts 144°
2026-05-06 14:07 49.27689 1.25401 32911 ft 472 kts 144°
2026-05-06 14:08 49.22360 1.31139 32909 ft 472 kts 143°
2026-05-06 14:08 49.16976 1.36924 32908 ft 472 kts 143°
2026-05-06 14:09 49.11650 1.42629 32902 ft 471 kts 143°
2026-05-06 14:09 49.06280 1.48365 32892 ft 470 kts 143°
2026-05-06 14:10 49.00937 1.54059 32890 ft 470 kts 143°
2026-05-06 14:10 48.95617 1.59712 32888 ft 470 kts 143°
2026-05-06 14:11 48.90278 1.65373 32881 ft 470 kts 144°
2026-05-06 14:11 48.84903 1.71056 32881 ft 469 kts 144°
2026-05-06 14:12 48.79573 1.76675 32867 ft 469 kts 144°
2026-05-06 14:12 48.74197 1.82329 32876 ft 469 kts 144°
2026-05-06 14:13 48.68888 1.87898 32872 ft 469 kts 144°
2026-05-06 14:13 48.63517 1.93515 32866 ft 468 kts 144°
2026-05-06 14:14 48.58182 1.99082 32876 ft 468 kts 144°
2026-05-06 14:14 48.52846 2.04637 32865 ft 468 kts 144°
2026-05-06 14:15 48.47503 2.10186 32870 ft 467 kts 144°
2026-05-06 14:15 48.42162 2.15720 32881 ft 467 kts 144°
2026-05-06 14:16 48.36808 2.21250 32885 ft 467 kts 144°
2026-05-06 14:16 48.31279 2.26312 32881 ft 468 kts 150°
2026-05-06 14:17 48.25433 2.30417 32889 ft 467 kts 157°
2026-05-06 14:17 48.19275 2.33550 32887 ft 467 kts 163°
2026-05-06 14:18 48.13051 2.36105 32886 ft 466 kts 161°
2026-05-06 14:18 48.06905 2.39149 32886 ft 465 kts 160°
2026-05-06 14:19 48.00765 2.42197 32891 ft 465 kts 160°
2026-05-06 14:19 47.94667 2.45217 32884 ft 464 kts 160°
2026-05-06 14:20 47.88551 2.48242 32892 ft 464 kts 160°
2026-05-06 14:20 47.82458 2.51249 32885 ft 463 kts 160°
2026-05-06 14:21 47.76342 2.54261 32871 ft 463 kts 160°
2026-05-06 14:21 47.70224 2.57267 32867 ft 464 kts 160°
2026-05-06 14:22 47.64091 2.60273 32868 ft 465 kts 160°
2026-05-06 14:22 47.57981 2.63259 32868 ft 463 kts 160°
2026-05-06 14:23 47.51889 2.66230 32870 ft 462 kts 161°
2026-05-06 14:23 47.45784 2.69201 32863 ft 464 kts 161°
2026-05-06 14:24 47.32809 2.75502 32878 ft 463 kts 161°
2026-05-06 14:24 46.84047 2.98815 32863 ft 465 kts 161°
2026-05-06 14:25 46.34868 3.22766 32871 ft 467 kts 159°
2026-05-06 14:25 45.86215 3.49141 32871 ft 468 kts 160°
2026-05-06 14:26 45.62822 3.66117 32894 ft 471 kts 147°
2026-05-06 14:26 45.43168 3.91622 32943 ft 475 kts 135°
2026-05-06 14:26 45.06148 4.43719 32766 ft 473 kts 136°
2026-05-06 14:27 44.76738 5.06787 32837 ft 483 kts 126°
2026-05-06 14:27 44.69106 5.22975 32849 ft 474 kts 138°
2026-05-06 14:27 44.66758 5.25981 32867 ft 463 kts 150°
2026-05-06 14:28 44.64028 5.28240 32868 ft 454 kts 161°
2026-05-06 14:28 44.61156 5.30081 32875 ft 456 kts 159°
2026-05-06 14:28 44.55854 5.35129 32882 ft 467 kts 145°
2026-05-06 14:29 44.51218 5.41514 32885 ft 473 kts 139°
2026-05-06 14:29 44.46813 5.48380 32886 ft 475 kts 137°
2026-05-06 14:30 44.42457 5.55285 32875 ft 475 kts 137°
2026-05-06 14:30 44.38167 5.62293 32876 ft 478 kts 134°
2026-05-06 14:31 44.34307 5.69865 32878 ft 481 kts 131°
2026-05-06 14:31 44.28888 5.81036 32877 ft 481 kts 131°
2026-05-06 14:32 44.11125 6.17348 32885 ft 480 kts 131°
2026-05-06 14:32 43.97025 6.45804 32873 ft 478 kts 132°
2026-05-06 14:33 43.82018 6.75854 32882 ft 468 kts 133°
2026-05-06 14:33 43.71074 6.96238 32866 ft 451 kts 144°
2026-05-06 14:34 43.65321 7.02777 32858 ft 443 kts 152°
2026-05-06 14:34 43.40243 7.28388 32847 ft 444 kts 151°
2026-05-06 14:35 43.26113 7.43049 32849 ft 444 kts 151°
2026-05-06 14:35 43.21204 7.48108 32616 ft 437 kts 151°
2026-05-06 14:36 43.18801 7.50575 31930 ft 437 kts 152°
2026-05-06 14:36 43.16366 7.53064 31162 ft 436 kts 152°
2026-05-06 14:36 43.13944 7.55493 30434 ft 432 kts 154°
2026-05-06 14:36 43.06284 7.61717 28420 ft 420 kts 162°
2026-05-06 14:37 42.99853 7.65291 27296 ft 401 kts 171°
2026-05-06 14:37 42.97202 7.66336 26827 ft 393 kts 171°
2026-05-06 14:37 42.94593 7.67392 26199 ft 391 kts 170°
2026-05-06 14:37 42.85245 7.71532 24082 ft 389 kts 168°
2026-05-06 14:38 42.75269 7.76439 22505 ft 381 kts 166°
2026-05-06 14:38 42.65408 7.81392 20955 ft 373 kts 167°
2026-05-06 14:38 42.55778 7.86118 19291 ft 367 kts 167°
2026-05-06 14:38 42.46267 7.90743 17721 ft 360 kts 166°
2026-05-06 14:39 42.38398 7.94577 16427 ft 354 kts 165°
2026-05-06 14:39 42.36090 7.95706 16004 ft 351 kts 165°
2026-05-06 14:39 42.33825 7.96817 15497 ft 350 kts 164°
2026-05-06 14:39 42.31629 7.98323 14973 ft 356 kts 151°
2026-05-06 14:40 42.29742 8.00458 14492 ft 361 kts 139°
2026-05-06 14:40 42.28076 8.03008 14006 ft 361 kts 135°
2026-05-06 14:40 42.26475 8.05576 13521 ft 359 kts 134°
2026-05-06 14:40 42.24871 8.08160 13041 ft 357 kts 134°
2026-05-06 14:41 42.23294 8.10688 12574 ft 354 kts 134°
2026-05-06 14:41 42.21714 8.13209 12086 ft 352 kts 134°
2026-05-06 14:41 42.20130 8.15727 11601 ft 349 kts 134°
2026-05-06 14:41 42.18597 8.18163 11394 ft 337 kts 134°
2026-05-06 14:42 42.17123 8.20505 11070 ft 318 kts 134°
2026-05-06 14:42 42.15739 8.22701 10675 ft 304 kts 134°
2026-05-06 14:42 42.14373 8.24857 10254 ft 302 kts 134°
2026-05-06 14:42 42.13009 8.27005 9871 ft 299 kts 134°
2026-05-06 14:43 42.11665 8.29117 9519 ft 297 kts 134°
2026-05-06 14:43 42.10325 8.31225 9156 ft 295 kts 134°
2026-05-06 14:43 42.09006 8.33300 8791 ft 293 kts 134°
2026-05-06 14:43 42.07674 8.35393 8430 ft 291 kts 133°
2026-05-06 14:44 42.05519 8.38778 7865 ft 289 kts 133°
2026-05-06 14:44 42.02911 8.42874 7199 ft 286 kts 133°
2026-05-06 14:44 41.99996 8.47435 6528 ft 282 kts 132°
2026-05-06 14:45 41.97438 8.51347 5879 ft 277 kts 136°
2026-05-06 14:45 41.96073 8.53149 5538 ft 275 kts 137°
2026-05-06 14:45 41.94702 8.54929 5178 ft 274 kts 137°
2026-05-06 14:45 41.93337 8.56699 4869 ft 271 kts 137°
2026-05-06 14:46 41.92006 8.58426 4709 ft 261 kts 136°
2026-05-06 14:46 41.90964 8.60327 4437 ft 249 kts 109°
2026-05-06 14:46 41.90564 8.62533 4099 ft 240 kts 105°
2026-05-06 14:46 41.89799 8.64478 3532 ft 237 kts 141°
2026-05-06 14:47 41.88350 8.65302 3078 ft 229 kts 183°
2026-05-06 14:47 41.86862 8.64649 2962 ft 227 kts 219°
2026-05-06 14:47 41.85887 8.63114 2939 ft 207 kts 247°
2026-05-06 14:47 41.85583 8.61369 2970 ft 185 kts 271°
2026-05-06 14:48 41.85860 8.59695 2997 ft 185 kts 295°
2026-05-06 14:48 41.86654 8.58347 2972 ft 186 kts 321°
2026-05-06 14:48 41.87807 8.57619 2963 ft 187 kts 347°
2026-05-06 14:48 41.89108 8.57457 2967 ft 188 kts 356°
2026-05-06 14:49 41.90424 8.57396 2950 ft 183 kts 357°
2026-05-06 14:49 41.91624 8.57347 2964 ft 169 kts 357°
2026-05-06 14:49 41.92804 8.57289 2952 ft 167 kts 356°
2026-05-06 14:49 41.93967 8.57225 2952 ft 167 kts 356°
2026-05-06 14:50 41.95119 8.57155 2950 ft 167 kts 355°
2026-05-06 14:50 41.96285 8.57081 2950 ft 167 kts 355°
2026-05-06 14:50 41.97448 8.57162 2951 ft 169 kts 13°
2026-05-06 14:50 41.98489 8.57875 2955 ft 171 kts 38°
2026-05-06 14:51 41.99224 8.59144 2954 ft 173 kts 64°
2026-05-06 14:51 41.99638 8.60646 2962 ft 173 kts 72°
2026-05-06 14:51 41.99995 8.62204 2960 ft 173 kts 73°
2026-05-06 14:51 42.00348 8.63757 2960 ft 172 kts 72°
2026-05-06 14:52 42.00664 8.65293 2954 ft 172 kts 79°
2026-05-06 14:52 42.00730 8.66895 2961 ft 173 kts 94°
2026-05-06 14:52 42.00563 8.68509 2962 ft 173 kts 100°
2026-05-06 14:52 42.00348 8.70084 2961 ft 173 kts 101°
2026-05-06 14:53 42.00124 8.71685 2955 ft 172 kts 101°
2026-05-06 14:53 41.99918 8.73191 2896 ft 154 kts 100°
2026-05-06 14:53 41.99734 8.74564 2661 ft 147 kts 100°
2026-05-06 14:53 41.99555 8.75919 2442 ft 146 kts 100°
2026-05-06 14:54 41.99379 8.77253 2223 ft 146 kts 100°
2026-05-06 14:54 41.99202 8.78604 1996 ft 146 kts 100°
2026-05-06 14:54 41.99027 8.79936 1769 ft 145 kts 100°
2026-05-06 14:54 41.98782 8.81252 1528 ft 144 kts 118°
2026-05-06 14:55 41.98156 8.82262 1310 ft 141 kts 146°
2026-05-06 14:55 41.97275 8.82769 1095 ft 138 kts 173°
2026-05-06 14:55 41.96335 8.82710 881 ft 134 kts 198°
2026-05-06 14:55 41.95493 8.82198 684 ft 132 kts 210°
2026-05-06 14:56 41.94680 8.81669 492 ft 130 kts 207°
2026-05-06 14:56 41.93851 8.81158 295 ft 129 kts 206°
2026-05-06 14:56 41.93048 8.80653 89 ft 127 kts 206°
2026-05-06 14:56 41.92292 8.80175 35 ft 93 kts 205°
2026-05-06 14:57 41.91941 8.79956 34 ft 37 kts 206°
2026-05-06 14:57 41.91713 8.79825 34 ft 33 kts 204°
2026-05-06 14:57 41.91513 8.79695 35 ft 30 kts 205°
2026-05-06 14:57 41.91325 8.79582 35 ft 28 kts 205°
2026-05-06 14:58 41.91281 8.79408 35 ft 25 kts 329°
2026-05-06 14:58 41.91442 8.79332 35 ft 24 kts
2026-05-06 14:58 41.91599 8.79419 35 ft 24 kts 25°
2026-05-06 14:58 41.91739 8.79506 34 ft 17 kts 25°
2026-05-06 14:59 41.91801 8.79544 34 ft 2 kts 20°
2026-05-06 14:59 41.91819 8.79539 34 ft 3 kts 303°
2026-05-06 14:59 41.91834 8.79513 35 ft 3 kts 326°
2026-05-06 14:59 41.91847 8.79507 35 ft 0 kts 343°
2026-05-06 15:00 41.91848 8.79506 35 ft 0 kts 343°